TIME,DELAY(SENSOR),PRES,OXYGEN,RAWTEMP,T(OPTODE),TCPHASE,FLUOR,BETA(BETA700),BETA(BETA412),BETA(BETA440),CDOM,C(CSC),ED(ED412.40),ED(ED444.00),ED(ED489.70),ED(ED554.30),LU(LU411.80),LU(LU443.40),LU(LU489.60),LU(LU554.10),COMP,TILTX,TILTY,CHECK
1337052488,5804,874.4400024414062000,42.4035797119140600,660.7321777343750000,4.6038627624511720,54.6425094604492200,53,103,88,79,83,15269,2147762313,2147423689,2148003520,2147874112,2147639451,2147063689,2148258907,2147196708,2942,4,13,17378
1337056084,5810,954.9299926757812000,46.2897987365722660,669.9204711914062000,4.3008232116699220,54.1940002441406250,54,100,91,80,83,15267,2147759780,2147424832,2148007488,2147876745,2147641764,2147061376,2148259309,2147200557,211,4,13,47382
1337059684,5808,982.9799804687500000,47.2022285461425800,671.9733886718750000,4.2329850196838380,54.0824394226074200,52,99,92,80,82,15269,2147762660,2147422784,2148007707,2147876736,2147639158,2147058678,2148261540,2147202020,133,4,13,23404
1337063284,5808,995.5000000000000000,46.3978881835937500,671.1649780273438000,4.2597050666809080,54.1923713684082000,53,99,89,80,84,15268,2147757056,2147425481,2148007442,2147876964,2147639917,2147061330,2148261385,2147201490,601,4,13,41564
1337066884,5810,998.0200195312500000,46.7792701721191400,672.5604248046875000,4.2135791778564450,54.1528701782226560,53,100,85,78,85,15264,2147761344,2147424429,2148005421,2147871835,2147644013,2147067264,2148265810,2147199954,242,4,13,7948
1337070484,5809,1003.4899902343750000,46.6586303710937500,672.4260864257812000,4.2180190086364750,54.1719589233398440,53,98,85,80,83,15268,2147762121,2147421019,2148004242,2147875126,2147642340,2147061540,2148262957,2147197787,228,4,13,18270
1337074084,5811,1012.1599731445312000,46.4056701660156250,671.8256225585938000,4.2378730773925780,54.1964302062988300,53,98,88,80,83,15267,2147757778,2147423808,2148004370,2147874651,2147641261,2147064914,2148257545,2147199542,3590,4,14,22405
1337077684,5809,1009.1099853515625000,46.0194091796875000,671.0853271484375000,4.2623391151428220,54.2448883056640600,53,100,87,79,83,15266,2147758656,2147422400,2148007936,2147875062,2147640182,2147062253,2148259721,2147198765,380,4,13,57070
1337081284,5810,1002.7500000000000000,46.0950088500976560,672.1071166992188000,4.2285671234130860,54.2457199096679700,53,102,89,79,83,15267,2147758537,2147422144,2148003620,2147872000,2147639588,2147064393,2148263661,2147199634,301,4,13,48632
1337084884,5810,1006.4500122070312000,46.2719306945800800,671.9633178710938000,4.2333221435546875,54.2183685302734400,53,101,86,79,84,15268,2147762916,2147423533,2148005814,2147875501,2147646784,2147063076,2148261138,2147195840,303,4,13,13699
1337088484,5808,1004.9500122070312000,46.5203895568847660,673.6146850585938000,4.1787171363830570,54.2020301818847660,52,100,89,80,84,15264,2147761280,2147426331,2148007680,2147875702,2147642998,2147065490,2148262308,2147201618,189,4,13,16293
1337092084,5810,1005.0999755859375000,46.7357101440429700,673.9102783203125000,4.1689381599426270,54.1737289428710940,53,101,91,79,84,15268,2147762102,2147421366,2148008237,2147875346,2147642779,2147066258,2148259675,2147201782,43,4,13,42279
1337095684,5808,1007.7199707031250000,46.4925193786621100,672.5988769531250000,4.2123088836669920,54.1981582641601560,53,100,88,80,83,15266,2147761947,2147426980,2148005622,2147874971,2147644406,2147064356,2148260699,2147201636,3529,4,13,51504
1337099284,5808,1006.2100219726562000,46.8247985839843750,673.3137817382812000,4.1886649131774900,54.1530914306640600,52,103,92,79,83,15265,2147759204,2147422198,2148005101,2147873974,2147642715,2147061961,2148264438,2147200137,261,4,13,63437
1337102884,5807,1005.4799804687500000,46.6021614074707000,673.5377807617188000,4.1812610626220700,54.1869087219238300,52,100,90,79,83,15265,2147760960,2147424320,2148005924,2147876900,2147642660,2147063826,2148263488,2147200896,208,4,13,3741
1337106484,5809,1009.9699707031250000,46.3641395568847660,672.6326293945312000,4.2111930847167970,54.2159996032714840,53,101,87,80,84,15263,2147762057,2147425170,2148005421,2147874148,2147645760,2147064539,2148268461,2147199588,175,4,13,4522
1337110084,5807,1011.5700073242188000,46.1921081542968750,673.5095825195312000,4.1821942329406740,54.2509498596191400,53,100,87,81,83,15245,2147760310,2147421769,2148004598,2147876352,2147640146,2147064009,2148263762,2147199405,173,4,13,2479
1337113684,5811,1006.6599731445312000,46.1258697509765600,673.4772949218750000,4.1832599639892580,54.2567596435546900,52,99,90,79,84,15257,2147761728,2147424082,2148003053,2147877595,2147641938,2147061577,2148263305,2147199680,132,4,13,31155
1337117284,5809,1013.1799926757812000,47.0344581604003900,673.8933105468750000,4.1694998741149900,54.1291809082031250,53,105,90,80,83,15256,2147763885,2147421549,2148005430,2147873691,2147647040,2147060132,2148262317,2147199058,476,4,13,26856
1337120884,5809,1006.8300170898438000,47.3667984008789060,674.4099121093750000,4.1524119377136230,54.0889892578125000,53,100,91,81,84,15254,2147763693,2147422674,2148008155,2147877622,2147643218,2147059236,2148263177,2147201426,3107,4,13,36186
1337124484,5808,1012.7399902343750000,47.4420890808105500,674.3522949218750000,4.1543178558349610,54.0811996459960940,53,100,88,80,83,15257,2147760265,2147424576,2148005074,2147876269,2147642276,2147062336,2148262793,2147199277,3139,4,13,13426
1337128084,5807,1010.1500244140625000,46.8088111877441400,673.6326293945312000,4.1781229972839355,54.1645317077636700,53,98,87,80,83,15253,2147758656,2147423286,2148005888,2147874541,2147642989,2147061129,2148262226,2147199250,389,4,13,46523
1337131684,5812,1011.9000244140625000,47.4569206237793000,674.4647216796875000,4.1505990028381350,54.0836296081543000,53,98,86,79,83,15249,2147760704,2147421732,2148006656,2147873197,2147640941,2147058194,2148262829,2147200457,3280,4,13,17946
1337135284,5808,1011.0100097656250000,47.0878715515136700,674.7695922851562000,4.1405110359191895,54.1355094909668000,53,99,86,79,83,15252,2147764470,2147423396,2148006902,2147875346,2147644278,2147057865,2148261449,2147196059,91,5,13,47092
1337138884,5808,1009.2800292968750000,47.3246688842773440,674.5908203125000000,4.1464247703552250,54.0991592407226560,53,105,88,78,84,15253,2147760411,2147422829,2148007241,2147875913,2147641142,2147061878,2148263314,2147195446,42,4,13,47186
1337142484,5807,1008.0999755859375000,47.0622596740722660,674.8209228515625000,4.1388149261474610,54.1382408142089840,52,99,87,78,84,15251,2147761152,2147424036,2148007433,2147872502,2147643986,2147052937,2148262939,2147200484,388,4,13,47152
1337146084,5808,1013.8499755859375000,47.1672706604003900,674.8649902343750000,4.1373538970947270,54.1228713989257800,52,109,89,80,83,15252,2147760393,2147422582,2148008219,2147875309,2147645028,2147056777,2148261312,2147199021,398,4,13,60387
1337149684,5808,1014.3099975585938000,46.5339698791503900,674.0391235351562000,4.1646790504455570,54.2070884704589840,53,98,88,80,84,15252,2147759360,2147422244,2148002898,2147877714,2147642432,2147058230,2148262646,2147200795,3560,4,13,26601
1337153284,5808,1018.2399902343750000,46.2201004028320300,673.4470825195312000,4.1842579841613770,54.2422409057617200,52,99,89,79,83,15234,2147757321,2147420964,2148004388,2147873444,2147639158,2147064137,2148264393,2147198857,542,4,13,47744
1337156884,5809,1022.3699951171875000,45.5529212951660160,672.8726806640625000,4.2032551765441895,54.3336296081543000,53,101,87,80,84,15246,2147760512,2147422016,2148006354,2147873801,2147641764,2147061979,2148267026,2147199350,320,4,13,60233
1337160484,5812,1021.2000122070312000,46.1093711853027340,673.4852905273438000,4.1829972267150880,54.2576408386230500,52,103,83,79,83,15250,2147757622,2147425490,2148004571,2147874230,2147640905,2147058304,2148265682,2147195584,69,5,13,61608
1337164084,5807,1019.9600219726562000,45.7491683959960940,672.8787841796875000,4.2030529975891110,54.3026695251464840,53,100,86,79,83,15249,2147759030,2147420955,2148002907,2147877696,2147642477,2147066688,2148262025,2147201526,327,4,13,3464
1337167684,5808,1013.6099853515625000,45.7742118835449200,673.4230957031250000,4.1850528717041020,54.3088684082031250,52,101,86,79,83,15246,2147761097,2147422994,2148005568,2147876480,2147645037,2147063606,2148263579,2147194706,101,5,13,10353
1337171284,5812,1027.2500000000000000,46.6519508361816400,673.0175170898438000,4.1984667778015140,54.1796989440918000,53,100,88,79,83,15247,2147760667,2147422354,2148005348,2147875355,2147644361,2147057371,2148265755,2147198409,2573,4,13,62219
1337174884,5809,1016.2899780273438000,45.8316688537597660,673.1973876953125000,4.1925182342529300,54.2953681945800800,53,100,91,81,84,15249,2147761316,2147423259,2148001124,2147874669,2147643099,2147058267,2148265133,2147196717,148,4,13,3247
1337178484,5809,1019.2199707031250000,46.3939208984375000,673.2952270507812000,4.1892828941345215,54.2156791687011700,52,98,89,79,84,15246,2147760228,2147423405,2148006619,2147877138,2147637760,2147060909,2148267163,2147199771,3454,4,13,45993
1337182084,5810,1019.6400146484375000,45.7773399353027340,673.2631835937500000,4.1903419494628910,54.3030891418457000,53,99,90,78,83,15220,2147761170,2147423460,2148006829,2147875346,2147641490,2147055533,2148255625,2147198747,193,4,13,34592
1337185684,5810,1013.4099731445312000,46.3867797851562500,674.4384155273438000,4.1514701843261720,54.2325782775878900,52,100,88,80,83,15220,2147759387,2147423734,2148007478,2147875675,2147641993,2147055213,2148261970,2147201453,760,4,13,9240
1337189284,5807,1014.6599731445312000,47.8308982849121100,675.2487792968750000,4.1246509552001950,54.0397987365722660,53,100,87,81,84,15220,2147758802,2147424210,2148005522,2147875401,2147644608,2147056548,2148261824,2147200960,3439,4,13,48045
1337192884,5809,1017.5200195312500000,46.8740997314453100,674.1386108398438000,4.1613860130310060,54.1598815917968750,53,98,87,80,84,15217,2147764123,2147423040,2148004187,2147876443,2147643081,2147056000,2148261650,2147198875,93,5,13,64044
1337196484,5806,1020.0599975585938000,45.6902198791503900,674.2246704101562000,4.1585369110107420,54.3318290710449200,53,101,88,79,82,15220,2147760585,2147421522,2148008100,2147877120,2147641307,2147058852,2148257801,2147200283,368,4,13,18959
1337197856,5805,1023.1099853515625000,46.7454414367675800,673.8032226562500000,4.1724801063537600,54.1728591918945300,52,99,84,80,84,15253,2147760292,2147421165,2148003126,2147877595,2147644928,2147064201,2148262939,2147200310,2891,4,13,556
